Location: Austin
(30.3000°N, 97.7500°W)
Time: 12:48:19
(UTC-05:00)

Cosmos 2278 Rocket - Pass Details

Date: 05 September 2024
Orbit: 841 x 844 km, 71.0° (Epoch: 10 September)

Event Time Altitude Azimuth Distance (km) Brightness Sun altitude
Rises 22:49:00 0° 346° (NNW) 3,402 6.0 -37.0°
Reaches altitude 10° 22:51:31 10° 351° (N) 2,465 5.1 -37.4°
Enters shadow 22:53:10 20° 357° (N) 1,875 4.3 -37.7°
